Date String (YYYY-MM-DD hh:mm:ss) UTC,Instrument flags,Ambient pressure (hPa),Sample flow (lpm),Bypass flow (lpm),Sample temperature (°C),Ambient temperature (°C),ASC tube jacket temperature (°C),LED temperature (°C),Box temperature (°C),Sample RH (%),Span deviation,Mass concentration (μg/m³),Mass concentration (μg/m³),Mass concentration (μg/m³)
DateTimeUTC,F1_M11,P_M11,Q1_M11,Q2_M11,T1_M11,T2_M11,T3_M11,T4_M11,T5_M11,U1_M11,ZSPAN_M11,X0_M11,X2_M11,X1_M11
2021-11-28 13:00:00,,0829.0,5.00,0.00,22.9,22.0,00.0,31.9,24.7,14.3,0000.0,0008.60,0002.91,0001.70
2021-11-28 13:01:00,,0829.1,5.00,0.00,22.9,22.0,00.0,31.9,24.7,14.3,0000.0,0008.43,0002.88,0001.69
2021-11-28 13:02:00,,0829.1,5.01,0.00,22.9,22.0,00.0,31.9,24.6,14.3,0000.0,0009.04,0002.85,0001.70
2021-11-28 13:03:00,,0829.3,4.99,0.00,22.9,22.0,00.0,31.9,24.7,14.2,0000.0,0009.09,0002.85,0001.70
2021-11-28 13:04:00,,0829.2,5.00,0.00,22.9,22.0,00.0,31.9,24.7,14.2,0000.0,0009.64,0002.84,0001.69
2021-11-28 13:05:00,,0829.2,4.99,0.00,22.9,22.0,00.0,31.9,24.7,14.3,0000.0,0010.02,0002.82,0001.70
2021-11-28 13:06:00,,0829.2,5.02,0.00,22.9,22.0,00.0,31.9,24.6,14.3,0000.0,0010.17,0002.79,0001.70
2021-11-28 13:07:00,,0829.1,4.99,0.00,22.9,22.0,00.0,31.9,24.7,14.3,0000.0,0009.34,0002.79,0001.69
2021-11-28 13:08:00,,0829.2,5.01,0.00,22.9,22.0,00.0,31.9,24.6,14.3,0000.0,0009.42,0002.71,0001.68
2021-11-28 13:09:00,,0829.3,4.99,0.00,22.9,22.0,00.0,31.8,24.6,14.3,0000.0,0009.48,0002.70,0001.68
2021-11-28 13:10:00,,0829.2,5.00,0.00,22.9,22.0,00.0,31.8,24.6,14.3,0000.0,0009.27,0002.63,0001.68
2021-11-28 13:11:00,,0829.2,5.01,0.00,22.8,21.9,00.0,31.8,24.6,14.3,0000.0,0009.09,0002.59,0001.66
2021-11-28 13:12:00,,0829.2,5.00,0.00,22.9,21.9,00.0,31.8,24.6,14.3,0000.0,0009.25,0002.56,0001.66
2021-11-28 13:13:00,,0829.3,4.99,0.00,22.9,21.9,00.0,31.8,24.6,14.3,0000.0,0008.57,0002.58,0001.65
2021-11-28 13:14:00,,0829.4,5.00,0.00,22.8,21.9,00.0,31.8,24.6,14.3,0000.0,0009.23,0002.62,0001.64
2021-11-28 13:15:00,,0829.5,5.00,0.00,22.8,21.9,00.0,31.8,24.6,14.3,0000.0,0008.99,0002.57,0001.63
2021-11-28 13:16:00,,0829.5,5.00,0.00,22.8,21.9,00.0,31.8,24.5,14.2,0000.0,0008.51,0002.61,0001.62
2021-11-28 13:17:00,,0829.6,5.00,0.00,22.8,21.9,00.0,31.8,24.5,14.2,0000.0,0008.47,0002.67,0001.61
2021-11-28 13:18:00,,0829.5,5.00,0.00,22.8,21.9,00.0,31.8,24.5,14.3,0000.0,0008.52,0002.69,0001.60
2021-11-28 13:19:00,,0829.5,5.01,0.00,22.8,21.9,00.0,31.8,24.5,14.3,0000.0,0008.12,0002.65,0001.56
2021-11-28 13:20:00,,0829.5,5.01,0.00,22.8,21.8,00.0,31.8,24.5,14.4,0000.0,0007.93,0002.59,0001.53
2021-11-28 13:21:00,,0829.5,4.99,0.00,22.7,21.8,00.0,31.8,24.5,14.4,0000.0,0008.38,0002.59,0001.51
2021-11-28 13:22:00,,0829.6,5.01,0.00,22.7,21.8,00.0,31.8,24.5,14.4,0000.0,0008.56,0002.57,0001.49
2021-11-28 13:23:00,,0829.6,5.00,0.00,22.7,21.8,00.0,31.8,24.5,14.3,0000.0,0008.36,0002.60,0001.47
2021-11-28 13:24:00,,0829.6,4.99,0.00,22.7,21.8,00.0,31.8,24.5,14.3,0000.0,0008.34,0002.58,0001.44
2021-11-28 13:25:00,,0829.6,5.02,0.00,22.7,21.8,00.0,31.8,24.5,14.3,0000.0,0008.41,0002.49,0001.43
2021-11-28 13:26:00,,0829.6,5.00,0.00,22.7,21.8,00.0,31.7,24.5,14.3,0000.0,0008.82,0002.55,0001.42
2021-11-28 13:27:00,,0829.5,5.01,0.00,22.7,21.8,00.0,31.7,24.5,14.3,0000.0,0008.87,0002.60,0001.42
2021-11-28 13:28:00,,0829.6,5.00,0.00,22.7,21.8,00.0,31.7,24.4,14.3,0000.0,0008.72,0002.67,0001.42
2021-11-28 13:29:00,,0829.8,4.99,0.00,22.7,21.8,00.0,31.7,24.4,14.4,0000.0,0009.01,0002.79,0001.42
2021-11-28 13:30:00,,0829.8,5.00,0.00,22.7,21.8,00.0,31.7,24.4,14.4,0000.0,0009.51,0002.90,0001.43
2021-11-28 13:31:00,,0829.7,5.00,0.00,22.6,21.8,00.0,31.7,24.4,14.4,0000.0,0009.58,0002.98,0001.43
2021-11-28 13:32:00,,0829.8,5.00,0.00,22.6,21.8,00.0,31.7,24.3,14.4,0000.0,0009.29,0002.99,0001.42
2021-11-28 13:33:00,,0829.8,5.02,0.00,22.7,22.3,00.0,31.7,24.5,14.3,0000.0,0008.96,0003.05,0001.42
2021-11-28 13:34:00,,0829.8,5.00,0.00,22.8,23.0,00.0,31.8,24.8,14.2,0000.0,0009.24,0003.07,0001.41
2021-11-28 13:35:00,,0829.8,5.00,0.00,22.9,23.4,00.0,31.8,25.0,14.2,0000.0,0009.39,0003.05,0001.41
2021-11-28 13:36:00,,0829.8,5.00,0.00,23.0,23.3,00.0,31.8,25.0,14.1,0000.0,0009.34,0003.11,0001.41
2021-11-28 13:37:00,,0829.8,4.99,0.00,23.0,23.1,00.0,31.8,24.9,14.1,0000.0,0008.51,0003.10,0001.40
2021-11-28 13:38:00,,0829.8,4.99,0.00,23.0,22.9,00.0,31.9,24.9,14.1,0000.0,0008.42,0003.05,0001.38
2021-11-28 13:39:00,,0829.8,5.01,0.00,23.0,22.7,00.0,31.9,24.8,14.1,0000.0,0008.35,0002.97,0001.36
2021-11-28 13:40:00,,0829.8,4.99,0.00,23.0,22.6,00.0,31.9,24.8,14.1,0000.0,0008.01,0002.80,0001.33
2021-11-28 13:41:00,,0829.7,5.01,0.00,23.0,22.5,00.0,31.9,24.7,14.1,0000.0,0007.32,0002.65,0001.32
2021-11-28 13:42:00,,0829.8,5.00,0.00,22.9,22.4,00.0,31.9,24.7,14.1,0000.0,0007.17,0002.56,0001.32
2021-11-28 13:43:00,,0829.7,4.99,0.00,22.9,22.3,00.0,31.9,24.7,14.1,0000.0,0007.79,0002.50,0001.30
2021-11-28 13:44:00,,0829.7,4.99,0.00,22.9,22.3,00.0,31.9,24.6,14.1,0000.0,0007.64,0002.38,0001.28
2021-11-28 13:45:00,,0829.8,5.00,0.00,22.9,22.2,00.0,31.9,24.6,14.1,0000.0,0007.27,0002.29,0001.27
2021-11-28 13:46:00,,0829.8,4.99,0.00,22.9,22.2,00.0,31.9,24.6,14.2,0000.0,0006.82,0002.21,0001.25
2021-11-28 13:47:00,,0829.8,5.01,0.00,22.8,22.1,00.0,31.9,24.6,14.1,0000.0,0006.23,0002.17,0001.23
2021-11-28 13:48:00,,0829.8,4.99,0.00,22.8,22.1,00.0,31.9,24.6,14.1,0000.0,0006.41,0002.08,0001.21
2021-11-28 13:49:00,,0829.8,5.01,0.00,22.8,22.1,00.0,31.9,24.5,14.2,0000.0,0006.79,0002.02,0001.19
2021-11-28 13:50:00,,0829.8,5.00,0.00,22.8,22.1,00.0,31.9,24.5,14.2,0000.0,0006.79,0002.03,0001.19
2021-11-28 13:51:00,,0829.8,4.99,0.00,22.8,22.0,00.0,31.9,24.5,14.2,0000.0,0006.79,0002.02,0001.18
2021-11-28 13:52:00,,0829.8,5.01,0.00,22.8,22.0,00.0,31.8,24.5,14.2,0000.0,0006.87,0002.00,0001.17
2021-11-28 13:53:00,,0829.8,4.99,0.00,22.8,22.0,00.0,31.8,24.5,14.1,0000.0,0006.82,0002.00,0001.17
2021-11-28 13:54:00,,0829.9,5.02,0.00,22.8,22.0,00.0,31.8,24.5,14.2,0000.0,0005.64,0002.00,0001.17
2021-11-28 13:55:00,,0829.8,5.01,0.00,22.8,22.0,00.0,31.8,24.5,14.2,0000.0,0005.92,0002.05,0001.17
2021-11-28 13:56:00,,0829.8,4.98,0.00,22.7,21.9,00.0,31.8,24.5,14.3,0000.0,0006.54,0002.12,0001.18
2021-11-28 13:57:00,,0829.8,5.01,0.00,22.7,21.9,00.0,31.8,24.5,14.3,0000.0,0006.82,0002.19,0001.19
2021-11-28 13:58:00,,0829.8,4.99,0.00,22.7,21.9,00.0,31.8,24.5,14.3,0000.0,0008.04,0002.22,0001.19
2021-11-28 13:59:00,,0829.9,5.01,0.00,22.7,21.9,00.0,31.8,24.4,14.3,0000.0,0007.82,0002.25,0001.21
